Date String (YYYY-MM-DD hh:mm:ss) UTC,Instrument flags,absolute air pressure of the measurement (hPa),sample flow rate (lpm),inlet stack bypass flow (lpm),air temperature of the measurement (°C),ambient temperature measured by the external sensor (°C),aerosol sample conditioner tube jacket temperature (°C),OPC LED temperature (°C),internal box temperature (°C),relative humidity of the measurement (%),span deviation,mass concentration of particles derived from Lorenz-Mie calculation of OPC scattering (μg/m³),mass concentration of particles derived from Lorenz-Mie calculation of OPC scattering (μg/m³),mass concentration of particles derived from Lorenz-Mie calculation of OPC scattering (μg/m³)
DateTimeUTC,F1_M11,P_M11,Q1_M11,Q2_M11,T1_M11,T2_M11,T3_M11,T4_M11,T5_M11,U1_M11,ZSPAN_M11,X2_M11,X0_M11,X1_M11
2023-11-20 10:00:00,SystemResetWarning,0826.2,5.00,000.00,024.1,022.9,000.0,032.5,025.3,13.0,0000.0,0002.02,0004.14,0001.81
2023-11-20 10:01:00,SystemResetWarning,0826.2,5.01,000.00,024.1,022.9,000.0,032.5,025.3,13.1,0000.0,0002.04,0004.46,0001.82
2023-11-20 10:02:00,SystemResetWarning,0826.2,5.00,000.00,024.1,022.9,000.0,032.5,025.3,13.0,0000.0,0002.06,0004.40,0001.84
2023-11-20 10:03:00,SystemResetWarning,0826.2,4.99,000.00,024.0,022.9,000.0,032.5,025.3,12.9,0000.0,0002.09,0004.45,0001.86
2023-11-20 10:04:00,SystemResetWarning,0826.2,4.99,000.00,024.0,022.8,000.0,032.5,025.3,12.8,0000.0,0002.08,0004.41,0001.86
2023-11-20 10:05:00,SystemResetWarning,0826.2,5.00,000.00,024.0,022.8,000.0,032.5,025.3,12.8,0000.0,0002.08,0004.36,0001.87
2023-11-20 10:06:00,SystemResetWarning,0826.2,4.99,000.00,024.0,022.8,000.0,032.4,025.3,12.8,0000.0,0002.09,0004.06,0001.88
2023-11-20 10:07:00,SystemResetWarning,0826.2,5.00,000.00,024.0,022.8,000.0,032.4,025.2,12.8,0000.0,0002.14,0003.17,0001.90
2023-11-20 10:08:00,SystemResetWarning,0826.2,5.00,000.00,024.0,022.7,000.0,032.4,025.2,12.8,0000.0,0002.15,0003.21,0001.89
2023-11-20 10:09:00,SystemResetWarning,0826.2,5.01,000.00,024.0,022.7,000.0,032.4,025.2,12.9,0000.0,0002.20,0003.33,0001.90
2023-11-20 10:10:00,SystemResetWarning,0826.2,5.02,000.00,023.9,022.7,000.0,032.4,025.2,12.9,0000.0,0002.20,0003.25,0001.90
2023-11-20 10:11:00,SystemResetWarning,0826.2,4.99,000.00,023.9,022.7,000.0,032.4,025.2,12.9,0000.0,0002.17,0003.06,0001.89
2023-11-20 10:12:00,SystemResetWarning,0826.2,4.99,000.00,023.9,022.7,000.0,032.4,025.2,12.9,0000.0,0002.16,0002.73,0001.90
2023-11-20 10:13:00,SystemResetWarning,0826.3,5.00,000.00,023.9,022.7,000.0,032.4,025.2,12.9,0000.0,0002.14,0002.64,0001.91
2023-11-20 10:14:00,SystemResetWarning,0826.3,5.01,000.00,023.9,022.7,000.0,032.3,025.1,13.0,0000.0,0002.12,0002.60,0001.91
2023-11-20 10:15:00,SystemResetWarning,0826.3,5.00,000.00,023.9,022.6,000.0,032.3,025.2,13.0,0000.0,0002.14,0002.64,0001.92
2023-11-20 10:16:00,SystemResetWarning,0826.3,4.99,000.00,023.9,022.6,000.0,032.3,025.1,13.0,0000.0,0002.16,0002.66,0001.92
2023-11-20 10:17:00,SystemResetWarning,0826.4,5.00,000.00,023.9,022.6,000.0,032.3,025.1,13.0,0000.0,0002.16,0002.64,0001.93
2023-11-20 10:18:00,SystemResetWarning,0826.3,4.99,000.00,023.8,022.6,000.0,032.3,025.1,12.9,0000.0,0002.11,0002.62,0001.92
2023-11-20 10:19:00,SystemResetWarning,0826.4,5.00,000.00,023.8,022.6,000.0,032.3,025.1,12.9,0000.0,0002.13,0002.64,0001.92
2023-11-20 10:20:00,SystemResetWarning,0826.4,5.00,000.00,023.8,022.6,000.0,032.3,025.1,12.9,0000.0,0002.11,0002.57,0001.94
2023-11-20 10:21:00,SystemResetWarning,0826.4,5.01,000.00,023.8,022.6,000.0,032.3,025.0,12.9,0000.0,0002.10,0002.51,0001.94
2023-11-20 10:22:00,SystemResetWarning,0826.4,5.00,000.00,023.8,022.6,000.0,032.3,025.0,12.9,0000.0,0002.12,0002.54,0001.95
2023-11-20 10:23:00,SystemResetWarning,0826.4,5.01,000.00,023.8,022.6,000.0,032.3,025.1,12.9,0000.0,0002.15,0002.62,0001.95
2023-11-20 10:24:00,SystemResetWarning,0826.4,5.00,000.00,023.8,022.6,000.0,032.2,025.1,12.9,0000.0,0002.16,0002.67,0001.94
2023-11-20 10:25:00,SystemResetWarning,0826.4,5.00,000.00,023.8,022.6,000.0,032.2,025.1,12.9,0000.0,0002.16,0002.67,0001.94
2023-11-20 10:26:00,SystemResetWarning,0826.4,5.00,000.00,023.8,022.6,000.0,032.2,025.1,12.9,0000.0,0002.16,0002.72,0001.93
2023-11-20 10:27:00,SystemResetWarning,0826.4,4.99,000.00,023.8,022.6,000.0,032.2,025.1,12.9,0000.0,0002.16,0002.74,0001.93
2023-11-20 10:28:00,SystemResetWarning,0826.4,5.00,000.00,023.8,022.6,000.0,032.2,025.1,12.9,0000.0,0002.17,0002.76,0001.92
2023-11-20 10:29:00,SystemResetWarning,0826.4,5.02,000.00,023.8,022.6,000.0,032.2,025.1,12.9,0000.0,0002.16,0002.68,0001.92
2023-11-20 10:30:00,SystemResetWarning,0826.5,5.00,000.00,023.8,022.6,000.0,032.2,025.1,12.9,0000.0,0002.14,0002.63,0001.93
2023-11-20 10:31:00,SystemResetWarning,0826.5,5.00,000.00,023.8,022.7,000.0,032.2,025.1,12.9,0000.0,0002.17,0002.68,0001.92
2023-11-20 10:32:00,SystemResetWarning,0826.5,5.00,000.00,023.8,022.6,000.0,032.2,025.0,12.9,0000.0,0002.17,0002.71,0001.90
2023-11-20 10:33:00,SystemResetWarning,0826.6,5.00,000.00,023.8,022.6,000.0,032.2,025.0,12.9,0000.0,0002.14,0002.65,0001.89
2023-11-20 10:34:00,SystemResetWarning,0826.6,5.00,000.00,023.8,022.7,000.0,032.2,025.0,12.9,0000.0,0002.09,0002.55,0001.87
2023-11-20 10:35:00,SystemResetWarning,0826.6,4.99,000.00,023.8,022.7,000.0,032.2,025.1,12.9,0000.0,0002.08,0002.62,0001.85
2023-11-20 10:36:00,SystemResetWarning,0826.6,5.00,000.00,023.8,022.7,000.0,032.2,025.1,12.9,0000.0,0002.09,0002.66,0001.84
2023-11-20 10:37:00,SystemResetWarning,0826.6,5.02,000.00,023.8,022.7,000.0,032.2,025.1,12.9,0000.0,0002.08,0002.63,0001.83
2023-11-20 10:38:00,SystemResetWarning,0826.6,5.00,000.00,023.8,022.7,000.0,032.2,025.1,12.9,0000.0,0002.11,0002.74,0001.81
2023-11-20 10:39:00,SystemResetWarning,0826.6,4.99,000.00,023.8,022.6,000.0,032.2,025.0,12.9,0000.0,0002.12,0002.80,0001.81
2023-11-20 10:40:00,SystemResetWarning,0826.5,4.99,000.00,023.7,022.6,000.0,032.2,025.0,12.9,0000.0,0002.11,0002.78,0001.79
2023-11-20 10:41:00,SystemResetWarning,0826.6,5.00,000.00,023.7,022.6,000.0,032.1,025.0,12.9,0000.0,0002.07,0002.72,0001.77
2023-11-20 10:42:00,SystemResetWarning,0826.6,5.01,000.00,023.7,022.6,000.0,032.1,025.0,12.9,0000.0,0002.03,0002.63,0001.76
2023-11-20 10:43:00,SystemResetWarning,0826.6,5.01,000.00,023.7,022.6,000.0,032.1,025.0,12.9,0000.0,0002.03,0002.75,0001.77
2023-11-20 10:44:00,SystemResetWarning,0826.6,5.00,000.00,023.7,022.6,000.0,032.1,025.0,12.8,0000.0,0002.04,0002.87,0001.77
2023-11-20 10:45:00,SystemResetWarning,0826.6,4.99,000.00,023.7,022.6,000.0,032.1,025.0,12.8,0000.0,0002.07,0002.94,0001.78
2023-11-20 10:46:00,SystemResetWarning,0826.6,4.99,000.00,023.7,022.5,000.0,032.1,025.0,12.9,0000.0,0002.09,0002.93,0001.79
2023-11-20 10:47:00,SystemResetWarning,0826.6,5.00,000.00,023.7,022.5,000.0,032.1,025.0,12.9,0000.0,0002.10,0002.96,0001.78
2023-11-20 10:48:00,SystemResetWarning,0826.6,5.01,000.00,023.7,022.5,000.0,032.1,025.0,13.0,0000.0,0002.08,0002.94,0001.78
2023-11-20 10:49:00,SystemResetWarning,0826.6,4.99,000.00,023.7,022.5,000.0,032.1,025.0,13.0,0000.0,0002.04,0002.86,0001.77
2023-11-20 10:50:00,SystemResetWarning,0826.7,4.99,000.00,023.7,022.5,000.0,032.1,025.0,13.0,0000.0,0002.00,0002.78,0001.76
2023-11-20 10:51:00,SystemResetWarning,0826.7,5.01,000.00,023.7,022.5,000.0,032.1,024.9,13.0,0000.0,0002.01,0002.81,0001.76
2023-11-20 10:52:00,SystemResetWarning,0826.8,5.01,000.00,023.7,022.5,000.0,032.1,024.9,13.0,0000.0,0002.04,0002.90,0001.76
2023-11-20 10:53:00,SystemResetWarning,0826.8,5.00,000.00,023.6,022.5,000.0,032.1,024.9,13.0,0000.0,0002.05,0002.92,0001.76
2023-11-20 10:54:00,SystemResetWarning,0826.8,4.99,000.00,023.6,022.5,000.0,032.0,024.9,12.9,0000.0,0002.04,0002.85,0001.75
2023-11-20 10:55:00,SystemResetWarning,0826.8,4.99,000.00,023.6,022.5,000.0,032.0,024.9,12.9,0000.0,0002.02,0002.64,0001.76
2023-11-20 10:56:00,SystemResetWarning,0826.7,5.00,000.00,023.6,022.5,000.0,032.0,024.9,12.9,0000.0,0002.00,0002.60,0001.75
2023-11-20 10:57:00,SystemResetWarning,0826.8,5.01,000.00,023.6,022.4,000.0,032.0,024.9,12.9,0000.0,0001.98,0002.56,0001.74
2023-11-20 10:58:00,SystemResetWarning,0826.8,5.01,000.00,023.6,022.4,000.0,032.0,024.9,12.9,0000.0,0001.96,0002.47,0001.74
2023-11-20 10:59:00,SystemResetWarning,0826.8,5.00,000.00,023.6,022.4,000.0,032.0,024.9,12.9,0000.0,0001.95,0002.45,0001.74
